HINODE (SOLAR-B)

Last updated on Mon Sep 21 2026 00:03:33 GMT+0000 (Coordinated Universal Time)

1 29479U 06041A 26263.36208063 .00000345 00000+0 67624-4 0 9999 2 29479 98.0551 278.1174 0017114 350.7054 9.3832 14.68724861 68847
UTC large
Height (km)
Speed (km/s)
/
Latitude / Longitude
Inclination (degrees)
Orbital Period (minutes)
Azimuth
Elevation
Range (km)
Doppler Factor

Next 0 passes for location: London (51.5072 / 0.1276)

No passes found over London.
HINODE (SOLAR-B)